Regional Weather Roundup
Issued by NWS Huntsville, AL

Home | Current Version | Previous Version | Text Only | Print | Product List | Glossary On
Versions: 1 2 3 4 5 6 7 8 9 10 11 12 13 14 15 16 17 18 19 20 21 22 23 24 25 26 27 28 29 30 31 32 33 34 35 36 37 38 39 40 41 42 43 44 45 46 47 48 49 50
000
ASUS44 KHUN 291310
RWRHUN

WEATHER ROUNDUP FOR THE TENNESSEE VALLEY
NATIONAL WEATHER SERVICE HUNTSVILLE AL
800 AM CDT SAT JUL 29 2017

ALZ001>004-291400-
NORTHWEST ALABAMA

CITY           SKY/WX    TMP DP  RH WIND       PRES   REMARKS
COURTLAND HCN    N/A     73 N/A N/A CALM        N/A
RUSSELLVILLE     N/A     73 N/A N/A MISG        N/A
SHOALS AIRPORT SUNNY     76  70  82 N6        29.90R
SHOALS TVA RES   N/A     73 N/A N/A MISG        N/A
$$

ALZ005>007-016-291400-
NORTH CENTRAL ALABAMA

CITY           SKY/WX    TMP DP  RH WIND       PRES   REMARKS
CULLMAN AG STN   N/A     73 N/A N/A N5          N/A
DECATUR AP     PTSUNNY   73  72  96 N8        29.89R
HUNTSVILLE AP  PTSUNNY   76  73  91 N8        29.88S
MERIDIANVILLE  CLOUDY    72  68  88 CALM      29.89S
REDSTONE ARSN  CLOUDY    74  71  90 N8        29.88R
VINEMONT AP    CLOUDY    72  70  93 N5        29.91R
$$

ALZ008>010-291400-
NORTHEAST ALABAMA

CITY           SKY/WX    TMP DP  RH WIND       PRES   REMARKS
ALBERTVILLE    SUNNY     73  73 100 N7        29.87S
FORT PAYNE     MOSUNNY   72  68  88 CALM      29.86S
SCOTTSBORO AP  SUNNY     75  72  88 N5        29.88R
SCOTTSBORO HCN   N/A     73 N/A N/A MISG        N/A
VALLEY HEAD      N/A     70 N/A N/A MISG        N/A
$$

TNZ076-096-097-291400-
SOUTHEASTERN MIDDLE TENNESSEE

CITY           SKY/WX    TMP DP  RH WIND       PRES   REMARKS
TULLAHOMA      CLOUDY    70  66  88 N7        29.92R
WINCHESTER     CLOUDY    70  68  94 N5        29.91R
$$

...SURROUNDING SITES...

CITY           SKY/WX    TMP DP  RH WIND       PRES   REMARKS
ATLANTA        PTSUNNY   77  71  82 N10       29.84R
ANNISTON       MOSUNNY   79  73  82 N8        29.84S
BIRMINGHAM     PTSUNNY   77  74  90 N5        29.88R
CHATTANOOGA    MOSUNNY   76  66  71 N9        29.87R
CORINTH        FAIR      75  70  83 NE7       29.91R
DALTON         NOT AVBL
GADSDEN        MOSUNNY   77  73  87 N8        29.86R
GOLDEN TRNGL   CLOUDY    81  72  74 N5        29.82R
JACKSON TN     MOSUNNY   74  69  85 NE8       29.94R
MEMPHIS        MOSUNNY   76  70  82 NE10      29.93R
NASHVILLE      MOSUNNY   73  65  75 N10       29.94R
OXFORD MS      FAIR      73  70  88 NE10      29.92S
ROME           SUNNY     78  71  79 N8        29.84R
SAVANNAH       SUNNY     73  70  88 N6        29.91R
TUPELO         PTSUNNY   76  71  85 N12       29.89R
TUSCALOOSA     CLOUDY    77  76  96 VRB7      29.86R
$$

...GULF COAST WEATHER...

CITY           SKY/WX    TMP DP  RH WIND       PRES   REMARKS
GULFPORT       LGT RAIN  81  79  94 W7        29.89R FOG     HX  90
PASCAGOULA     LGT RAIN  81  77  88 W3        29.89R
MOBILE         LGT RAIN  79  76  90 W6        29.90R FOG
GULF SHORES    PTSUNNY   82  81  97 W18G26    29.88R HX  93
PENSACOLA      CLOUDY    81  79  94 CALM      29.86R HX  90
DESTIN         CLOUDY    87  78  74 VRB6      29.85R HX 100
PANAMA CITY    CLOUDY    86  78  77 W14       29.86R HX  97
APPALACHICOLA  MOSUNNY   86  80  82 W9        29.87R HX 101
$$




USA.gov is the U.S. government's official web portal to all federal, state and local government web resources and services.